[[{"header":{"parameterUnit":"m.s-1","parameterCategory":2,"la1":30.2991,"la2":30.254,"lo1":-89.0895,"lo2":-89.0444,"dy":0.0017,"dx":0.0017,"nx":28,"ny":28,"refTime":"2024-12-14T03:00:00:Z","depth":"0","parameterNumber":2,"parameterNumberName":"U-component_of_CURRENTS"},"data":[0,0,0,0,0,0,0,0,0,0,0,0,0,0,0,0,0,0,0,0,0,0,0,0,0,0,0,0,0,0,0,0,0,0,0,0,0,0,0,0,0,0,0,0,0,0,0,0,0,0,0,0,0,0,0,0,0,0,-0.2543,-0.2544,0,-0.2572,-0.2572,-0.2572,-0.2543,-0.2542,-0.2541,-0.254,-0.2494,-0.2493,-0.2493,0,0,0,0,0,0,0,0,0,0,0,0,0,-0.2443,-0.2445,-0.2543,-0.2544,-0.2545,-0.2572,-0.2572,-0.2572,-0.2543,-0.2542,-0.2541,-0.254,-0.2494,-0.2493,-0.2493,0,0,0,0,0,0,0,0,0,0,0,0,0,-0.2477,-0.2445,-0.2543,-0.2536,-0.2536,-0.2572,-0.2572,-0.2572,-0.2543,-0.2542,-0.2541,-0.2539,-0.2494,-0.2494,-0.2493,-0.2513,0,0,-0.2491,-0.249,0,0,0,0,0,0,0,0,-0.2475,-0.248,-0.2536,-0.2537,-0.2537,-0.2556,-0.252,-0.255,-0.2543,-0.2537,-0.254,-0.2539,-0.2511,-0.2509,-0.2513,-0.2511,-0.2509,-0.2491,-0.249,-0.249,-0.249,0,0,0,0,0,0,0,-0.2473,-0.2479,-0.2551,-0.2537,-0.2537,-0.2525,-0.2528,-0.2525,-0.2526,-0.2537,-0.2536,-0.2545,-0.251,-0.2514,-0.2511,-0.2508,-0.2491,-0.249,-0.249,-0.2489,-0.2521,-0.2523,0,0,0,0,0,0,-0.248,-0.2477,-0.255,-0.2552,-0.2506,-0.2528,-0.2531,-0.2548,-0.2528,-0.2525,-0.2546,-0.2544,-0.2515,-0.2512,-0.251,-0.2538,-0.249,-0.2489,-0.2489,-0.252,-0.2522,-0.2523,0,0,0,0,0,0,-0.2477,-0.2486,-0.2549,-0.2517,-0.2525,-0.2531,-0.255,-0.2549,-0.2552,-0.2536,-0.2531,-0.255,-0.2514,-0.2511,-0.2514,-0.2535,-0.2489,-0.2488,-0.2519,-0.2521,-0.2522,-0.259,0,0,0,0,0,0,-0.2475,-0.2485,-0.2494,-0.2518,-0.2527,-0.2579,-0.2551,-0.2551,-0.2562,-0.2558,-0.2538,-0.2532,-0.2513,-0.2515,-0.2513,-0.2533,-0.2488,-0.2517,-0.252,-0.2522,-0.2586,-0.2594,-0.2601,0,0,0,0,0,-0.2471,-0.2493,-0.2495,-0.2503,-0.2541,-0.258,-0.2584,-0.258,-0.2563,-0.2575,-0.2559,-0.2533,-0.2529,-0.2516,-0.2513,-0.2533,-0.2516,-0.2519,-0.2522,-0.2583,-0.2593,-0.2601,0,0,0,0,0,0,-0.2451,-0.2493,-0.2495,-0.2528,-0.2555,-0.2577,-0.2586,-0.2587,-0.2586,-0.2575,-0.255,-0.2545,-0.2556,-0.2539,-0.2525,-0.2551,-0.2518,-0.252,-0.2566,-0.2574,-0.2582,-0.2585,-0.2487,0,0,0,0,0,-0.2454,-0.2479,-0.2518,-0.2541,-0.2557,-0.2572,-0.2584,-0.2589,-0.2595,-0.2593,-0.2581,-0.2568,-0.2568,-0.2565,-0.256,-0.2576,-0.2566,-0.2588,-0.2595,-0.2601,-0.2604,-0.2609,-0.2617,-0.2533,-0.2532,-0.2532,0,0,-0.245,-0.2477,-0.249,-0.2538,-0.2553,-0.2591,-0.2575,-0.2603,-0.2628,-0.2588,-0.2606,-0.2593,-0.2578,-0.2595,-0.2599,-0.2582,-0.2624,-0.2605,-0.261,-0.2609,-0.2613,-0.2621,-0.2628,-0.2534,-0.2534,-0.2534,0,0,-0.2463,-0.2484,-0.2512,-0.2544,-0.2583,-0.26,-0.2612,-0.2641,-0.2646,-0.267,-0.2647,-0.2652,-0.2648,-0.2648,-0.2646,-0.2693,-0.2662,-0.2687,-0.2727,-0.2733,-0.274,-0.2746,-0.2759,-0.2765,-0.2691,-0.2691,-0.2691,0,-0.2453,-0.2499,-0.2524,-0.2566,-0.2592,-0.2608,-0.2647,-0.2667,-0.2691,-0.2702,-0.2681,-0.2691,-0.2677,-0.2705,-0.2717,-0.271,-0.2705,-0.2695,-0.2742,-0.2748,-0.2752,-0.2764,-0.277,-0.2695,-0.2695,-0.2694,-0.2694,0,-0.2492,-0.2531,-0.2551,-0.2608,-0.2642,-0.2677,-0.2719,-0.2743,-0.2747,-0.2762,-0.2786,-0.2773,-0.2774,-0.2778,-0.2759,-0.2791,-0.2776,-0.2751,-0.2719,-0.2765,-0.2775,-0.278,-0.27,-0.2699,-0.2698,-0.2697,0,0,-0.2457,-0.2558,-0.2562,-0.2598,-0.2667,-0.2698,-0.2752,-0.2803,-0.2833,-0.2846,-0.2881,-0.2883,-0.2865,-0.2862,-0.2844,-0.2851,-0.2885,-0.2815,-0.2814,-0.2828,-0.2902,-0.2865,-0.2866,-0.2863,-0.2864,-0.2865,-0.2901,0,-0.2473,-0.2551,-0.2602,-0.267,-0.2712,-0.2759,-0.281,-0.2857,-0.2884,-0.2924,-0.2923,-0.2941,-0.2902,-0.29,-0.2904,-0.2889,-0.2899,-0.2878,-0.2856,-0.2856,-0.2816,-0.2871,-0.2785,-0.2807,-0.2906,-0.2907,-0.2907,0,-0.2483,-0.2539,-0.2609,-0.2706,-0.2728,-0.277,-0.2845,-0.2895,-0.2961,-0.2983,-0.3003,-0.3001,-0.3021,-0.2975,-0.2976,-0.2961,-0.2935,-0.2923,-0.2924,-0.2865,-0.2827,-0.2774,-0.2812,-0.28,-0.2915,-0.2914,-0.2914,0,-0.2431,-0.2537,-0.2589,-0.2622,-0.2736,-0.2769,-0.2821,-0.2898,-0.294,-0.3011,-0.3038,-0.3064,-0.3063,-0.3051,-0.3013,-0.2996,-0.3013,-0.2986,-0.2935,-0.2932,-0.2843,-0.2831,-0.2862,-0.2988,-0.2987,-0.2987,-0.2987,0,-0.2421,-0.2461,-0.2566,-0.2595,-0.265,-0.274,-0.2798,-0.2859,-0.2947,-0.2995,-0.3044,-0.3075,-0.3076,-0.3081,-0.3049,-0.301,-0.3037,-0.2955,-0.2942,-0.2866,-0.2856,-0.2825,-0.2828,-0.2989,-0.2988,-0.2988,-0.2988,0,-0.235,-0.2426,-0.2485,-0.2596,-0.2625,-0.2655,-0.2766,-0.2811,-0.2906,-0.2971,-0.2992,-0.3078,-0.3096,-0.3097,-0.3088,-0.3041,-0.2977,-0.2994,-0.2911,-0.2887,-0.2824,-0.2832,-0.2821,-0.2742,-0.296,-0.2959,-0.2959,0,-0.2322,-0.2344,-0.2446,-0.2469,-0.2513,-0.2579,-0.2624,-0.2755,-0.2808,-0.296,-0.298,-0.3048,-0.3074,-0.3076,-0.3034,-0.3004,-0.2953,-0.2886,-0.2836,-0.2824,-0.2824,-0.281,-0.2742,-0.2755,-0.2753,-0.2751,-0.275,0,-0.2247,-0.2276,-0.2319,-0.2368,-0.2412,-0.2473,-0.2552,-0.2599,-0.2754,-0.2827,-0.2924,-0.2972,-0.3018,-0.2977,-0.2949,-0.2897,-0.2826,-0.2847,-0.2851,-0.2687,-0.2656,-0.2571,-0.2742,-0.2734,-0.2736,-0.2737,-0.2738,-0.2738,-0.216,-0.2161,-0.2208,-0.2244,-0.2295,-0.2342,-0.2348,-0.2465,-0.2543,-0.2646,-0.2785,-0.2852,-0.2892,-0.286,-0.2818,-0.2724,-0.2729,-0.2641,-0.2661,-0.2656,-0.255,-0.2695,-0.2657,-0.2658,-0.2659,-0.266,-0.2661,0,-0.2042,-0.2058,-0.2085,-0.2121,-0.2121,-0.2197,-0.2272,-0.2266,-0.2313,-0.2476,-0.2557,-0.2705,-0.2676,-0.271,-0.2669,-0.2573,-0.2483,-0.25,-0.2461,-0.2403,-0.2545,-0.2505,-0.2411,-0.2411,-0.2411,-0.2411,-0.2411,-0.2411,-0.198,-0.1958,-0.1979,-0.1931,-0.195,-0.1905,-0.1916,-0.1942,-0.2022,-0.2141,-0.2297,-0.2474,-0.2539,-0.2741,-0.264,-0.2516,-0.2423,-0.2358,-0.2354,-0.2474,-0.2488,-0.2502,-0.2465,-0.2365,-0.2365,-0.2131,-0.213,-0.2129]},{"header":{"parameterUnit":"m.s-1","parameterCategory":2,"la1":30.2991,"la2":30.254,"lo1":-89.0895,"lo2":-89.0444,"dy":0.0017,"dx":0.0017,"nx":28,"ny":28,"refTime":"2024-12-14T03:00:00:Z","depth":"0","parameterNumber":3,"parameterNumberName":"V-component_of_CURRENTS"},"data":[0,0,0,0,0,0,0,0,0,0,0,0,0,0,0,0,0,0,0,0,0,0,0,0,0,0,0,0,0,0,0,0,0,0,0,0,0,0,0,0,0,0,0,0,0,0,0,0,0,0,0,0,0,0,0,0,0,0,-0.0129,-0.0128,0,-0.0024,-0.0023,-0.0021,0.0045,0.0045,0.0046,0.0046,0.0172,0.0175,0.0178,0,0,0,0,0,0,0,0,0,0,0,0,0,-0.0203,-0.0202,-0.0129,-0.0127,-0.0126,-0.0024,-0.0023,-0.0021,0.0045,0.0046,0.0046,0.0046,0.0171,0.0174,0.0178,0,0,0,0,0,0,0,0,0,0,0,0,0,-0.0141,-0.0202,-0.0129,-0.0082,-0.0076,-0.0024,-0.0022,-0.0021,0.0045,0.0046,0.0046,0.0046,0.017,0.0174,0.0179,0.0198,0,0,0.0193,0.0195,0,0,0,0,0,0,0,0,-0.0145,-0.0138,-0.009,-0.0085,-0.0079,-0.0003,-0.0002,0.0053,0.0045,-0.0,0.0046,0.0047,0.0114,0.0123,0.0143,0.0204,0.0209,0.0193,0.0196,0.0198,0.0199,0,0,0,0,0,0,0,-0.0149,-0.0142,-0.0086,-0.0089,-0.0082,-0.0042,-0.0033,0.0009,0.0055,0.0004,0.0009,0.0019,0.0118,0.0139,0.0147,0.0211,0.0193,0.0197,0.02,0.0202,0.031,0.0311,0,0,0,0,0,0,-0.0168,-0.0146,-0.0089,-0.0083,-0.0112,-0.0042,-0.0032,-0.0027,0.0054,0.0066,0.0018,0.0021,0.0131,0.0141,0.0152,0.0185,0.0198,0.0202,0.0205,0.031,0.031,0.0311,0,0,0,0,0,0,-0.017,-0.0164,-0.0094,-0.0113,-0.0101,-0.0041,-0.0036,-0.0025,-0.0004,0.0064,0.0077,0.0028,0.0131,0.0145,0.0191,0.019,0.0204,0.0208,0.031,0.031,0.0311,0.0248,0,0,0,0,0,0,-0.0173,-0.0166,-0.0171,-0.0114,-0.0101,-0.0072,-0.0036,-0.0023,0.0001,0.0007,0.0077,0.0089,0.0133,0.0183,0.0195,0.0197,0.0212,0.031,0.031,0.031,0.025,0.0246,0.0243,0,0,0,0,0,-0.0176,-0.0188,-0.0172,-0.0165,-0.0109,-0.0072,-0.0062,-0.0017,0.0001,0.0005,0.0058,0.0087,0.0193,0.0187,0.0201,0.0204,0.031,0.031,0.031,0.0251,0.0247,0.0243,0,0,0,0,0,0,-0.0224,-0.0181,-0.0162,-0.0161,-0.0123,-0.0062,-0.0056,-0.0023,0.0022,0.0026,0.0091,0.0107,0.0146,0.0183,0.0175,0.0236,0.0255,0.0258,0.0206,0.0202,0.0198,0.0177,0.0216,0,0,0,0,0,-0.0238,-0.0237,-0.0185,-0.0185,-0.0171,-0.0114,-0.0095,-0.0064,-0.0016,0.0004,0.0056,0.011,0.0158,0.0185,0.023,0.0264,0.0306,0.0275,0.0271,0.0268,0.026,0.0325,0.0326,0.0312,0.0312,0.0312,0,0,-0.0257,-0.0234,-0.0232,-0.0195,-0.0163,-0.015,-0.0101,-0.0079,-0.0061,0.0011,0.0046,0.0097,0.0163,0.0202,0.0223,0.0234,0.0295,0.0268,0.0265,0.0259,0.0325,0.0327,0.0328,0.0312,0.0312,0.0312,0,0,-0.0298,-0.0274,-0.0287,-0.026,-0.022,-0.0182,-0.018,-0.0121,-0.0089,-0.0048,0.0008,0.006,0.0128,0.0181,0.0215,0.0219,0.0271,0.023,0.0199,0.0262,0.0263,0.0265,0.0321,0.0329,0.0231,0.0231,0.0231,0,-0.0324,-0.033,-0.0285,-0.0287,-0.0271,-0.0202,-0.0208,-0.0163,-0.0096,-0.0068,-0.0049,0.0066,0.012,0.0181,0.0181,0.0211,0.025,0.0208,0.0256,0.0259,0.0262,0.0319,0.0328,0.0228,0.0228,0.0229,0.0229,0,-0.0371,-0.0373,-0.0378,-0.0358,-0.0333,-0.0327,-0.0263,-0.023,-0.0184,-0.0133,-0.0066,0.0015,0.0085,0.011,0.0147,0.0196,0.0217,0.024,0.0263,0.0259,0.0321,0.0331,0.0224,0.0225,0.0226,0.0226,0,0,-0.0434,-0.0418,-0.0418,-0.0424,-0.0371,-0.0359,-0.0323,-0.027,-0.0245,-0.0169,-0.0128,-0.0038,0.0013,0.0055,0.0117,0.017,0.0227,0.0204,0.0208,0.0251,0.036,0.0418,0.0436,0.0256,0.0257,0.0258,0.0395,0,-0.0484,-0.0519,-0.0483,-0.0502,-0.0513,-0.0438,-0.0412,-0.0351,-0.0283,-0.0224,-0.0121,-0.0063,-0.0008,0.0025,0.0089,0.0197,0.0251,0.0188,0.0364,0.0369,0.0415,0.0449,0.0499,0.0629,0.0405,0.0407,0.0408,0,-0.0539,-0.0556,-0.0593,-0.058,-0.0575,-0.0567,-0.0511,-0.0477,-0.0367,-0.0314,-0.0224,-0.0138,-0.0031,0.0003,0.0189,0.0144,0.0238,0.0318,0.0326,0.0407,0.0447,0.0598,0.0657,0.0861,0.0425,0.0424,0.0422,0,-0.0615,-0.0627,-0.0664,-0.066,-0.0632,-0.0625,-0.0598,-0.0508,-0.0479,-0.0366,-0.0328,-0.0183,-0.0107,0.0032,0.0212,0.0199,0.041,0.0421,0.0561,0.0567,0.0659,0.067,0.0931,0.0534,0.0533,0.0533,0.0533,0,-0.0683,-0.0709,-0.0706,-0.0727,-0.0761,-0.0705,-0.0706,-0.065,-0.0568,-0.0535,-0.0385,-0.0318,-0.01,0.0056,0.0204,0.043,0.0416,0.0565,0.0612,0.0639,0.0647,0.0868,0.0928,0.0538,0.0537,0.0536,0.0535,0,-0.0758,-0.0755,-0.08,-0.0799,-0.0802,-0.0824,-0.0794,-0.0787,-0.0694,-0.0642,-0.061,-0.0408,-0.0187,0.0039,0.0286,0.0427,0.0751,0.0699,0.0716,0.0762,0.1078,0.113,0.1394,0.149,0.0883,0.0886,0.0888,0,-0.0798,-0.0832,-0.087,-0.0905,-0.0909,-0.0927,-0.0939,-0.0865,-0.0844,-0.0693,-0.0672,-0.0445,-0.0263,0.0146,0.0442,0.0744,0.0865,0.0944,0.0932,0.1121,0.1214,0.1241,0.1303,0.1033,0.1036,0.1038,0.104,0,-0.0874,-0.0886,-0.0926,-0.1008,-0.1043,-0.1072,-0.1072,-0.1075,-0.0973,-0.09,-0.0751,-0.059,-0.0156,0.0243,0.0649,0.0825,0.1097,0.1003,0.1209,0.1365,0.1403,0.1507,0.0909,0.1062,0.106,0.1059,0.1057,0.1056,-0.0921,-0.0974,-0.1033,-0.1105,-0.1156,-0.1198,-0.122,-0.119,-0.1149,-0.1009,-0.0832,-0.0554,0.0058,0.0665,0.088,0.1371,0.1295,0.1508,0.1559,0.1573,0.1664,0.1109,0.1303,0.1303,0.1302,0.1301,0.1301,0,-0.0978,-0.1038,-0.1123,-0.1204,-0.1278,-0.1275,-0.1297,-0.1293,-0.125,-0.1052,-0.0867,-0.0205,0.0399,0.095,0.1654,0.1916,0.1952,0.2043,0.2111,0.2147,0.1688,0.1696,0.1973,0.1973,0.1973,0.1973,0.1973,0.1972,-0.1009,-0.1107,-0.1157,-0.1292,-0.1347,-0.1417,-0.1431,-0.1399,-0.1275,-0.0946,-0.0578,-0.0268,0.0569,0.1739,0.2397,0.2449,0.2644,0.2629,0.2722,0.2429,0.2383,0.2339,0.2367,0.278,0.2781,0.3172,0.3176,0.3179]}],[{"header":{"parameterUnit":"m.s-1","parameterCategory":2,"la1":30.2991,"la2":30.254,"lo1":-89.0895,"lo2":-89.0444,"dy":0.0017,"dx":0.0017,"nx":28,"ny":28,"refTime":"2024-12-14T03:00:00:Z","depth":"2","parameterNumber":2,"parameterNumberName":"U-component_of_CURRENTS"},"data":[0,0,0,0,0,0,0,0,0,0,0,0,0,0,0,0,0,0,0,0,0,0,0,0,0,0,0,0,0,0,0,0,0,0,0,0,0,0,0,0,0,0,0,0,0,0,0,0,0,0,0,0,0,0,0,0,0,0,-0.2381,-0.2381,0,-0.2407,-0.2407,-0.2407,-0.2382,-0.2381,-0.2381,-0.238,-0.2339,-0.2339,-0.2338,0,0,0,0,0,0,0,0,0,0,0,0,0,-0.2289,-0.2291,-0.2381,-0.2381,-0.2382,-0.2407,-0.2407,-0.2407,-0.2382,-0.2381,-0.2381,-0.238,-0.234,-0.2339,-0.2338,0,0,0,0,0,0,0,0,0,0,0,0,0,-0.232,-0.2291,-0.2381,-0.2375,-0.2375,-0.2407,-0.2407,-0.2407,-0.2382,-0.2381,-0.238,-0.2379,-0.234,-0.2339,-0.2338,-0.2354,0,0,-0.2336,-0.2336,0,0,0,0,0,0,0,0,-0.2318,-0.2323,-0.2376,-0.2376,-0.2376,-0.2393,-0.236,-0.2387,-0.2383,-0.2376,-0.238,-0.2379,-0.2354,-0.2352,-0.2355,-0.2352,-0.235,-0.2336,-0.2336,-0.2335,-0.2335,0,0,0,0,0,0,0,-0.2316,-0.2322,-0.2387,-0.2376,-0.2377,-0.2365,-0.2368,-0.2365,-0.2366,-0.2377,-0.2376,-0.2385,-0.2353,-0.2356,-0.2354,-0.2349,-0.2336,-0.2335,-0.2335,-0.2335,-0.2366,-0.2368,0,0,0,0,0,0,-0.2323,-0.232,-0.2387,-0.2389,-0.2348,-0.2368,-0.2371,-0.2386,-0.2368,-0.2366,-0.2385,-0.2383,-0.2358,-0.2355,-0.2352,-0.2383,-0.2335,-0.2335,-0.2334,-0.2365,-0.2367,-0.2368,0,0,0,0,0,0,-0.2321,-0.2329,-0.2386,-0.2357,-0.2364,-0.2371,-0.2387,-0.2387,-0.2392,-0.2376,-0.2371,-0.2392,-0.2357,-0.2353,-0.2358,-0.2381,-0.2334,-0.2334,-0.2364,-0.2366,-0.2367,-0.2436,0,0,0,0,0,0,-0.2318,-0.2328,-0.2337,-0.2358,-0.2366,-0.2414,-0.2389,-0.2388,-0.2401,-0.2398,-0.238,-0.2375,-0.2356,-0.236,-0.2358,-0.2379,-0.2333,-0.2362,-0.2364,-0.2367,-0.2432,-0.244,-0.2447,0,0,0,0,0,-0.2315,-0.2336,-0.2337,-0.2345,-0.238,-0.2415,-0.2418,-0.2416,-0.2402,-0.2415,-0.2401,-0.2376,-0.2373,-0.236,-0.2358,-0.2379,-0.2361,-0.2364,-0.2367,-0.2429,-0.2439,-0.2447,0,0,0,0,0,0,-0.2298,-0.2336,-0.2338,-0.2369,-0.2394,-0.2413,-0.2423,-0.2424,-0.2424,-0.2416,-0.2392,-0.2388,-0.24,-0.2383,-0.237,-0.2396,-0.2363,-0.2365,-0.2411,-0.242,-0.2427,-0.2431,-0.2333,0,0,0,0,0,-0.2302,-0.2325,-0.236,-0.2382,-0.2397,-0.2411,-0.2422,-0.2428,-0.2434,-0.2433,-0.2422,-0.2411,-0.2412,-0.241,-0.2405,-0.2421,-0.241,-0.2433,-0.244,-0.2447,-0.2449,-0.2454,-0.2462,-0.2377,-0.2377,-0.2377,0,0,-0.2299,-0.2324,-0.2335,-0.2379,-0.2394,-0.2429,-0.2414,-0.2442,-0.2466,-0.2429,-0.2448,-0.2436,-0.2422,-0.2439,-0.2443,-0.2426,-0.2469,-0.245,-0.2456,-0.2454,-0.2457,-0.2466,-0.2473,-0.2379,-0.2379,-0.2379,0,0,-0.2312,-0.2332,-0.2358,-0.2388,-0.2425,-0.2441,-0.2453,-0.2481,-0.2487,-0.2511,-0.249,-0.2496,-0.2493,-0.2493,-0.249,-0.2537,-0.2507,-0.2533,-0.2573,-0.2578,-0.2585,-0.2591,-0.2604,-0.2611,-0.2537,-0.2537,-0.2537,0,-0.2305,-0.2347,-0.237,-0.2409,-0.2434,-0.245,-0.2487,-0.2507,-0.253,-0.2542,-0.2524,-0.2535,-0.2521,-0.2548,-0.2561,-0.2554,-0.255,-0.254,-0.2588,-0.2593,-0.2598,-0.261,-0.2616,-0.254,-0.254,-0.254,-0.2539,0,-0.2342,-0.2378,-0.2398,-0.2452,-0.2484,-0.2518,-0.2557,-0.2582,-0.2588,-0.2603,-0.2628,-0.2616,-0.2618,-0.2622,-0.2603,-0.2636,-0.2621,-0.2596,-0.2565,-0.261,-0.262,-0.2626,-0.2546,-0.2544,-0.2543,-0.2542,0,0,-0.2311,-0.2405,-0.241,-0.2443,-0.2509,-0.2538,-0.259,-0.264,-0.267,-0.2685,-0.2721,-0.2723,-0.2708,-0.2704,-0.2687,-0.2695,-0.273,-0.2661,-0.2659,-0.2674,-0.2748,-0.271,-0.2711,-0.2708,-0.2709,-0.271,-0.2747,0,-0.2327,-0.2401,-0.2448,-0.2513,-0.2553,-0.2598,-0.2648,-0.2694,-0.2721,-0.2761,-0.2761,-0.2781,-0.2743,-0.2744,-0.2748,-0.2733,-0.2743,-0.2722,-0.2701,-0.2701,-0.2661,-0.2716,-0.2485,-0.2496,-0.2752,-0.2753,-0.2753,0,-0.2338,-0.239,-0.2457,-0.2549,-0.257,-0.2611,-0.2685,-0.2733,-0.2797,-0.282,-0.2842,-0.2842,-0.2862,-0.2818,-0.2819,-0.2805,-0.2781,-0.2769,-0.2769,-0.271,-0.2672,-0.2488,-0.2495,-0.2762,-0.2761,-0.276,-0.276,0,-0.229,-0.239,-0.244,-0.2472,-0.258,-0.2613,-0.2663,-0.2738,-0.2779,-0.285,-0.2878,-0.2905,-0.2906,-0.2894,-0.2858,-0.2841,-0.2857,-0.283,-0.278,-0.2777,-0.2564,-0.2541,-0.2833,-0.2833,-0.2832,-0.2832,-0.2832,0,-0.2282,-0.2321,-0.242,-0.2448,-0.2502,-0.2588,-0.2646,-0.2705,-0.2791,-0.2837,-0.2888,-0.2917,-0.292,-0.2925,-0.2893,-0.2854,-0.2882,-0.28,-0.2787,-0.2585,-0.2564,-0.2772,-0.2765,-0.2834,-0.2833,-0.2833,-0.2833,0,-0.2216,-0.2289,-0.2345,-0.2451,-0.248,-0.251,-0.2618,-0.2661,-0.2755,-0.2818,-0.284,-0.2923,-0.294,-0.2942,-0.2933,-0.2887,-0.2865,-0.2839,-0.2612,-0.2572,-0.2778,-0.2774,-0.2806,-0.2805,-0.2805,-0.2804,-0.2803,0,-0.219,-0.2212,-0.231,-0.2332,-0.2375,-0.244,-0.2484,-0.261,-0.266,-0.2807,-0.2825,-0.2894,-0.2914,-0.2914,-0.2851,-0.2815,-0.2854,-0.258,-0.251,-0.2793,-0.2777,-0.2774,-0.2771,-0.2259,-0.2254,-0.225,-0.2246,0,-0.2119,-0.2149,-0.2189,-0.2236,-0.228,-0.2337,-0.2413,-0.2457,-0.2606,-0.2673,-0.2763,-0.2805,-0.2829,-0.27,-0.2665,-0.26,-0.2574,-0.2499,-0.2836,-0.2313,-0.2282,-0.2265,-0.2279,-0.221,-0.2214,-0.2216,-0.2218,-0.222,-0.2038,-0.2039,-0.2084,-0.2118,-0.2167,-0.2208,-0.2212,-0.2313,-0.2382,-0.2445,-0.2592,-0.2572,-0.2575,-0.2418,-0.2329,-0.2245,-0.2414,-0.2277,-0.2286,-0.2301,-0.2243,-0.2213,-0.2118,-0.212,-0.2123,-0.2125,-0.2127,0,-0.1921,-0.1939,-0.1964,-0.1997,-0.1991,-0.207,-0.2137,-0.2102,-0.2127,-0.2217,-0.2264,-0.2072,-0.203,-0.2038,-0.1873,-0.1866,-0.1807,-0.1773,-0.1679,-0.1717,-0.175,-0.1661,-0.1383,-0.1381,-0.1379,-0.1377,0,0,-0.1861,-0.1835,-0.1854,-0.1802,-0.1824,-0.1766,-0.1773,-0.1743,-0.1757,-0.1707,-0.1702,-0.1881,-0.1964,-0.1658,-0.1605,-0.1469,-0.1564,-0.1392,-0.1986,-0.191,-0.194,-0.2039,-0.1944,0,0,0,0,0]},{"header":{"parameterUnit":"m.s-1","parameterCategory":2,"la1":30.2991,"la2":30.254,"lo1":-89.0895,"lo2":-89.0444,"dy":0.0017,"dx":0.0017,"nx":28,"ny":28,"refTime":"2024-12-14T03:00:00:Z","depth":"2","parameterNumber":3,"parameterNumberName":"V-component_of_CURRENTS"},"data":[0,0,0,0,0,0,0,0,0,0,0,0,0,0,0,0,0,0,0,0,0,0,0,0,0,0,0,0,0,0,0,0,0,0,0,0,0,0,0,0,0,0,0,0,0,0,0,0,0,0,0,0,0,0,0,0,0,0,-0.0137,-0.0136,0,-0.0036,-0.0034,-0.0033,0.0031,0.0031,0.0031,0.0032,0.0153,0.0156,0.0159,0,0,0,0,0,0,0,0,0,0,0,0,0,-0.0208,-0.0207,-0.0137,-0.0135,-0.0134,-0.0036,-0.0034,-0.0033,0.0031,0.0031,0.0032,0.0032,0.0152,0.0156,0.016,0,0,0,0,0,0,0,0,0,0,0,0,0,-0.0148,-0.0207,-0.0137,-0.0091,-0.0086,-0.0036,-0.0034,-0.0032,0.0031,0.0031,0.0032,0.0032,0.0151,0.0156,0.016,0.0179,0,0,0.0174,0.0176,0,0,0,0,0,0,0,0,-0.0151,-0.0145,-0.0099,-0.0094,-0.0089,-0.0015,-0.0015,0.0039,0.0031,-0.0013,0.0032,0.0032,0.0098,0.0107,0.0126,0.0185,0.019,0.0174,0.0177,0.0179,0.018,0,0,0,0,0,0,0,-0.0156,-0.0149,-0.0096,-0.0098,-0.0092,-0.0053,-0.0045,-0.0004,0.004,-0.0009,-0.0004,0.0005,0.0101,0.0122,0.0129,0.0192,0.0174,0.0178,0.0181,0.0183,0.0289,0.029,0,0,0,0,0,0,-0.0174,-0.0153,-0.0099,-0.0093,-0.0121,-0.0053,-0.0043,-0.0039,0.004,0.0051,0.0005,0.0008,0.0114,0.0124,0.0134,0.0168,0.0179,0.0183,0.0186,0.0289,0.029,0.029,0,0,0,0,0,0,-0.0176,-0.0171,-0.0103,-0.0121,-0.011,-0.0053,-0.0047,-0.0037,-0.0016,0.0049,0.0062,0.0014,0.0114,0.0128,0.0172,0.0173,0.0185,0.0189,0.0289,0.0289,0.029,0.0232,0,0,0,0,0,0,-0.0179,-0.0172,-0.0177,-0.0123,-0.011,-0.0082,-0.0048,-0.0035,-0.0011,-0.0006,0.0062,0.0074,0.0116,0.0165,0.0177,0.0179,0.0193,0.0289,0.0289,0.029,0.0234,0.023,0.0227,0,0,0,0,0,-0.0182,-0.0194,-0.0178,-0.0171,-0.0118,-0.0082,-0.0072,-0.0028,-0.0012,-0.0007,0.0043,0.0072,0.0175,0.0169,0.0182,0.0186,0.0289,0.0289,0.0289,0.0235,0.0231,0.0227,0,0,0,0,0,0,-0.0228,-0.0187,-0.0168,-0.0167,-0.0131,-0.0072,-0.0066,-0.0035,0.0009,0.0013,0.0076,0.0091,0.013,0.0166,0.0157,0.0218,0.0236,0.0239,0.019,0.0186,0.0183,0.0162,0.0196,0,0,0,0,0,-0.0241,-0.024,-0.019,-0.0191,-0.0176,-0.0122,-0.0103,-0.0073,-0.0027,-0.0007,0.0043,0.0095,0.0142,0.0169,0.0212,0.0246,0.0286,0.0257,0.0254,0.0251,0.0244,0.0307,0.0309,0.0291,0.0291,0.0291,0,0,-0.0259,-0.0237,-0.0236,-0.02,-0.017,-0.0156,-0.011,-0.0088,-0.0069,-0.0001,0.0034,0.0083,0.0147,0.0187,0.0207,0.0217,0.0278,0.0252,0.0248,0.0243,0.0307,0.0309,0.0311,0.0291,0.0291,0.0291,0,0,-0.0299,-0.0276,-0.0288,-0.0262,-0.0224,-0.0186,-0.0184,-0.0127,-0.0096,-0.0056,-0.0001,0.0049,0.0116,0.0168,0.0202,0.0207,0.0256,0.0217,0.0189,0.025,0.0252,0.0254,0.0308,0.0315,0.0219,0.0219,0.0219,0,-0.0324,-0.0329,-0.0286,-0.0288,-0.0272,-0.0206,-0.021,-0.0167,-0.0101,-0.0074,-0.0056,0.0057,0.0109,0.017,0.0171,0.02,0.0237,0.0197,0.0246,0.0248,0.0252,0.0306,0.0315,0.0216,0.0216,0.0217,0.0217,0,-0.0368,-0.0369,-0.0375,-0.0354,-0.033,-0.0324,-0.0261,-0.0229,-0.0184,-0.0134,-0.0069,0.001,0.0078,0.0103,0.0139,0.0189,0.0208,0.0231,0.0251,0.025,0.0307,0.0317,0.0212,0.0213,0.0214,0.0215,0,0,-0.0429,-0.0412,-0.0413,-0.0418,-0.0366,-0.0354,-0.0318,-0.0266,-0.0242,-0.0167,-0.0127,-0.0037,0.0011,0.0052,0.0113,0.0166,0.0222,0.0197,0.0202,0.0242,0.0351,0.0401,0.0417,0.0251,0.0252,0.0253,0.0382,0,-0.0477,-0.051,-0.0475,-0.0492,-0.0502,-0.0429,-0.0403,-0.0343,-0.0277,-0.022,-0.0119,-0.0062,-0.0007,0.0024,0.0088,0.0192,0.0246,0.0185,0.0353,0.0358,0.0397,0.043,0.0361,0.0474,0.0393,0.0394,0.0396,0,-0.053,-0.0546,-0.0581,-0.0567,-0.0563,-0.0555,-0.05,-0.0465,-0.0359,-0.0307,-0.0219,-0.0136,-0.003,0.0004,0.0185,0.0142,0.0233,0.0311,0.0318,0.039,0.0427,0.0464,0.0496,0.0413,0.0412,0.0411,0.0409,0,-0.0606,-0.0615,-0.065,-0.0646,-0.0618,-0.0611,-0.0584,-0.0497,-0.0468,-0.0359,-0.0323,-0.018,-0.0106,0.0031,0.0206,0.0194,0.0397,0.041,0.0541,0.0545,0.0534,0.0535,0.0521,0.0521,0.0521,0.052,0.052,0,-0.0672,-0.0697,-0.0693,-0.0713,-0.0746,-0.0691,-0.0692,-0.0637,-0.0557,-0.0525,-0.0378,-0.0314,-0.01,0.0051,0.0196,0.0413,0.0402,0.0544,0.0588,0.0513,0.0511,0.0492,0.0487,0.0525,0.0524,0.0523,0.0522,0,-0.0745,-0.0742,-0.0786,-0.0783,-0.0786,-0.0808,-0.078,-0.0773,-0.0682,-0.0633,-0.0602,-0.0406,-0.0193,0.0028,0.0269,0.0406,0.0599,0.0669,0.0567,0.0597,0.0704,0.0695,0.0835,0.0838,0.084,0.0843,0.0844,0,-0.0786,-0.0818,-0.0855,-0.089,-0.0893,-0.0912,-0.0923,-0.085,-0.0831,-0.0685,-0.0666,-0.0448,-0.0276,0.0118,0.0389,0.0678,0.0669,0.0773,0.0747,0.0711,0.074,0.0726,0.0713,0.0707,0.0708,0.0708,0.0708,0,-0.0861,-0.0873,-0.0911,-0.0992,-0.1027,-0.1056,-0.1057,-0.106,-0.096,-0.0893,-0.0753,-0.06,-0.0199,0.0122,0.0507,0.0661,0.0728,0.0792,0.0795,0.064,0.0602,0.0626,0.0616,0.0712,0.0711,0.0711,0.0711,0.0711,-0.0909,-0.096,-0.1018,-0.1089,-0.114,-0.1181,-0.1204,-0.1175,-0.1139,-0.1009,-0.0846,-0.0601,-0.0255,0.0284,0.0559,0.0809,0.0817,0.0859,0.0852,0.0847,0.0811,0.078,0.0916,0.0917,0.0917,0.0918,0.0918,0,-0.0965,-0.1025,-0.1108,-0.1188,-0.126,-0.1259,-0.1281,-0.1271,-0.1233,-0.1068,-0.0901,-0.0541,-0.0148,0.021,0.0612,0.087,0.0831,0.0895,0.0785,0.078,0.0777,0.0733,0.082,0.082,0.0821,0.0821,0,0,-0.0996,-0.1091,-0.114,-0.1273,-0.1329,-0.1395,-0.141,-0.1367,-0.1261,-0.1102,-0.0914,-0.0619,-0.0166,0.0093,0.0418,0.0626,0.0628,0.0637,0.0687,0.0513,0.0506,0.0729,0.0654,0,0,0,0,0]}],[{"header":{"parameterUnit":"m.s-1","parameterCategory":2,"la1":30.2991,"la2":30.254,"lo1":-89.0895,"lo2":-89.0444,"dy":0.0017,"dx":0.0017,"nx":28,"ny":28,"refTime":"2024-12-14T03:00:00:Z","depth":"4","parameterNumber":2,"parameterNumberName":"U-component_of_CURRENTS"},"data":[0,0,0,0,0,0,0,0,0,0,0,0,0,0,0,0,0,0,0,0,0,0,0,0,0,0,0,0,0,0,0,0,0,0,0,0,0,0,0,0,0,0,0,0,0,0,0,0,0,0,0,0,0,0,0,0,0,0,-0.1602,-0.1603,0,-0.1664,-0.1665,-0.1665,-0.1701,-0.1702,-0.1702,-0.1702,-0.1746,-0.1746,-0.1747,0,0,0,0,0,0,0,0,0,0,0,0,0,-0.1502,-0.1504,-0.1602,-0.1603,-0.1604,-0.1664,-0.1665,-0.1666,-0.1701,-0.1702,-0.1702,-0.1702,-0.1745,-0.1746,-0.1747,0,0,0,0,0,0,0,0,0,0,0,0,0,-0.1551,-0.1504,-0.1602,-0.1631,-0.1634,-0.1664,-0.1665,-0.1666,-0.1701,-0.1702,-0.1702,-0.1703,-0.1745,-0.1746,-0.1747,-0.1745,0,0,-0.1751,-0.1752,0,0,0,0,0,0,0,0,-0.1548,-0.1554,-0.1626,-0.1629,-0.1633,-0.1678,-0.1646,-0.1692,-0.1701,-0.1673,-0.1702,-0.1703,-0.1722,-0.1725,-0.1733,-0.1747,-0.1749,-0.1751,-0.1752,-0.1753,-0.1753,0,0,0,0,0,0,0,-0.1545,-0.1552,-0.1625,-0.1627,-0.1631,-0.1637,-0.1644,-0.1654,-0.1692,-0.1676,-0.1679,-0.1689,-0.1724,-0.1732,-0.1734,-0.1749,-0.1751,-0.1752,-0.1753,-0.1754,-0.1842,-0.1843,0,0,0,0,0,0,-0.1542,-0.1549,-0.1623,-0.1627,-0.1593,-0.1638,-0.1646,-0.1661,-0.1692,-0.1699,-0.1689,-0.1691,-0.1729,-0.1733,-0.1736,-0.1813,-0.1753,-0.1754,-0.1754,-0.184,-0.1842,-0.1844,0,0,0,0,0,0,-0.154,-0.1548,-0.162,-0.159,-0.16,-0.164,-0.1656,-0.1662,-0.17,-0.1703,-0.1708,-0.1724,-0.173,-0.1734,-0.1776,-0.1812,-0.1754,-0.1755,-0.1838,-0.1841,-0.1843,-0.1917,0,0,0,0,0,0,-0.1537,-0.1547,-0.1568,-0.1591,-0.1602,-0.1661,-0.1655,-0.1663,-0.1705,-0.1709,-0.1735,-0.1737,-0.173,-0.1774,-0.1777,-0.1813,-0.1756,-0.1836,-0.1839,-0.1842,-0.1913,-0.1922,-0.193,0,0,0,0,0,-0.1533,-0.1557,-0.1569,-0.1579,-0.1627,-0.1662,-0.167,-0.1696,-0.1706,-0.1731,-0.1751,-0.1738,-0.1795,-0.1777,-0.178,-0.1817,-0.1835,-0.1838,-0.1842,-0.1909,-0.192,-0.193,0,0,0,0,0,0,-0.1526,-0.1564,-0.1577,-0.1614,-0.1647,-0.167,-0.1698,-0.1715,-0.175,-0.1761,-0.1759,-0.1764,-0.1813,-0.1805,-0.1785,-0.185,-0.1812,-0.1817,-0.1863,-0.1873,-0.1881,-0.1879,-0.1758,0,0,0,0,0,-0.1534,-0.1564,-0.1598,-0.163,-0.1649,-0.1679,-0.1702,-0.1723,-0.1751,-0.1768,-0.1788,-0.1806,-0.1825,-0.1843,-0.1855,-0.1893,-0.188,-0.1918,-0.1927,-0.1934,-0.1935,-0.1943,-0.1953,-0.1855,-0.1855,-0.1855,0,0,-0.1541,-0.1566,-0.1584,-0.1631,-0.1658,-0.1697,-0.1695,-0.1742,-0.178,-0.1766,-0.1831,-0.1839,-0.1841,-0.1884,-0.1905,-0.1887,-0.1958,-0.1938,-0.1945,-0.1941,-0.1948,-0.1957,-0.1966,-0.1858,-0.1857,-0.1857,0,0,-0.156,-0.1593,-0.1623,-0.1657,-0.1708,-0.1728,-0.1749,-0.1794,-0.1825,-0.1879,-0.1879,-0.1912,-0.1946,-0.1956,-0.1962,-0.2024,-0.2001,-0.2033,-0.2078,-0.2087,-0.2095,-0.2102,-0.211,-0.2117,-0.2039,-0.2039,-0.2039,0,-0.1568,-0.161,-0.1638,-0.1678,-0.1712,-0.1747,-0.179,-0.1826,-0.1882,-0.191,-0.1913,-0.1972,-0.1978,-0.2021,-0.2044,-0.2044,-0.2043,-0.2039,-0.2098,-0.2104,-0.2109,-0.2116,-0.2123,-0.2043,-0.2043,-0.2042,-0.2042,0,-0.16,-0.1649,-0.1673,-0.1733,-0.1774,-0.1819,-0.1869,-0.1919,-0.1958,-0.1988,-0.2051,-0.2062,-0.2092,-0.2105,-0.2095,-0.2143,-0.2128,-0.2105,-0.207,-0.2124,-0.2128,-0.2133,-0.2049,-0.2048,-0.2046,-0.2045,0,0,-0.1575,-0.1676,-0.1687,-0.173,-0.181,-0.1844,-0.1918,-0.1985,-0.2035,-0.2087,-0.2146,-0.2181,-0.2186,-0.2193,-0.2189,-0.2202,-0.2246,-0.2177,-0.2176,-0.2182,-0.2271,-0.2133,-0.2125,-0.2234,-0.2235,-0.2236,-0.2263,0,-0.1593,-0.1672,-0.1723,-0.1807,-0.1851,-0.1916,-0.198,-0.2048,-0.2102,-0.2169,-0.2193,-0.2243,-0.222,-0.2242,-0.2253,-0.2247,-0.2262,-0.2241,-0.2221,-0.222,-0.2087,-0.2126,-0.224,-0.2267,-0.2268,-0.2269,-0.2269,0,-0.1598,-0.1656,-0.1739,-0.1848,-0.1876,-0.1935,-0.204,-0.2102,-0.2194,-0.2238,-0.2288,-0.2307,-0.2348,-0.2316,-0.2331,-0.232,-0.2304,-0.2293,-0.2293,-0.2137,-0.209,-0.2199,-0.2278,-0.2278,-0.2277,-0.2276,-0.2276,0,-0.1546,-0.1663,-0.1731,-0.1769,-0.1896,-0.1954,-0.2023,-0.2123,-0.2177,-0.2282,-0.2323,-0.2374,-0.2397,-0.2394,-0.2369,-0.236,-0.2373,-0.2353,-0.2216,-0.2207,-0.2291,-0.2283,-0.2362,-0.2362,-0.2362,-0.2362,-0.2362,0,-0.1525,-0.1584,-0.1719,-0.1756,-0.1839,-0.1939,-0.203,-0.2106,-0.2213,-0.2264,-0.2347,-0.2375,-0.2416,-0.2423,-0.2398,-0.2314,-0.2394,-0.2225,-0.2201,-0.2324,-0.232,-0.2295,-0.2287,-0.2363,-0.2363,-0.2363,-0.2362,0,-0.1449,-0.1542,-0.1624,-0.1768,-0.1816,-0.1872,-0.2018,-0.2071,-0.219,-0.2258,-0.2292,-0.2385,-0.239,-0.241,-0.2408,-0.2326,-0.228,-0.2232,-0.2373,-0.2357,-0.2108,-0.2104,-0.2086,-0.2082,-0.2078,-0.2074,-0.2071,0,-0.1414,-0.145,-0.1603,-0.1647,-0.1717,-0.1822,-0.1883,-0.2033,-0.208,-0.2232,-0.2238,-0.231,-0.2346,-0.2231,-0.2273,-0.2228,-0.2193,-0.2165,-0.2124,-0.2099,-0.2079,-0.2081,-0.2082,-0.2065,-0.2064,-0.2063,-0.2062,0,-0.1333,-0.1399,-0.1462,-0.155,-0.1628,-0.1707,-0.1807,-0.1831,-0.1986,-0.2116,-0.2124,-0.2131,-0.2139,-0.2129,-0.2108,-0.2073,-0.2181,-0.2122,-0.213,-0.2091,-0.2073,-0.2057,-0.2063,-0.2048,-0.205,-0.2051,-0.2052,0,-0.1264,-0.128,-0.1363,-0.1427,-0.1517,-0.1553,-0.1635,-0.1691,-0.1761,-0.1934,-0.1929,-0.2013,-0.211,-0.2049,-0.2029,-0.1985,-0.1953,-0.1882,-0.1902,-0.1918,-0.1848,-0.1798,-0.1667,0,0,0,0,0,-0.1182,-0.1183,-0.1232,-0.1293,-0.1374,-0.1424,-0.1559,-0.1645,-0.1798,-0.1749,-0.1837,-0.1838,-0.1827,-0.1875,-0.1791,-0.1951,-0.1957,-0.1847,-0.1886,-0.197,-0.1987,-0.1918,0,0,0,0,0,0,-0.1126,-0.1161,-0.118,-0.1159,-0.1171,-0.1244,-0.1324,-0.1437,-0.1426,-0.1588,-0.1585,-0.1712,-0.172,-0.1829,-0.1742,-0.1756,-0.1742,-0.191,-0.1905,-0.1961,-0.1976,-0.1989,-0.1924,0,0,0,0,0]},{"header":{"parameterUnit":"m.s-1","parameterCategory":2,"la1":30.2991,"la2":30.254,"lo1":-89.0895,"lo2":-89.0444,"dy":0.0017,"dx":0.0017,"nx":28,"ny":28,"refTime":"2024-12-14T03:00:00:Z","depth":"4","parameterNumber":3,"parameterNumberName":"V-component_of_CURRENTS"},"data":[0,0,0,0,0,0,0,0,0,0,0,0,0,0,0,0,0,0,0,0,0,0,0,0,0,0,0,0,0,0,0,0,0,0,0,0,0,0,0,0,0,0,0,0,0,0,0,0,0,0,0,0,0,0,0,0,0,0,-0.0104,-0.0104,0,-0.0035,-0.0034,-0.0033,0.0013,0.0013,0.0013,0.0013,0.0111,0.0113,0.0116,0,0,0,0,0,0,0,0,0,0,0,0,0,-0.0147,-0.0146,-0.0105,-0.0104,-0.0103,-0.0035,-0.0034,-0.0033,0.0013,0.0013,0.0013,0.0013,0.011,0.0113,0.0116,0,0,0,0,0,0,0,0,0,0,0,0,0,-0.0107,-0.0146,-0.0105,-0.0073,-0.007,-0.0035,-0.0034,-0.0032,0.0013,0.0013,0.0013,0.0014,0.0109,0.0113,0.0116,0.0133,0,0,0.0127,0.0129,0,0,0,0,0,0,0,0,-0.0109,-0.0105,-0.0078,-0.0075,-0.0071,-0.002,-0.0013,0.0024,0.0013,-0.0017,0.0013,0.0014,0.0069,0.0076,0.0089,0.0138,0.0142,0.0128,0.013,0.0132,0.0133,0,0,0,0,0,0,0,-0.0112,-0.0108,-0.0076,-0.0078,-0.0073,-0.0045,-0.0039,-0.0005,0.0025,-0.0015,-0.0011,-0.0006,0.0071,0.0086,0.0092,0.0143,0.0128,0.0131,0.0133,0.0135,0.0227,0.0228,0,0,0,0,0,0,-0.0126,-0.0111,-0.0078,-0.0074,-0.0091,-0.0044,-0.0038,-0.0036,0.0024,0.0033,-0.0006,-0.0004,0.0079,0.0088,0.0096,0.0129,0.0132,0.0135,0.0137,0.0227,0.0227,0.0228,0,0,0,0,0,0,-0.0127,-0.0124,-0.0081,-0.0091,-0.0084,-0.0045,-0.0042,-0.0035,-0.002,0.003,0.004,0.0001,0.008,0.0091,0.0128,0.0133,0.0137,0.014,0.0227,0.0227,0.0228,0.019,0,0,0,0,0,0,-0.0129,-0.0125,-0.013,-0.0092,-0.0084,-0.0066,-0.0042,-0.0034,-0.0018,-0.0014,0.0039,0.0048,0.0081,0.0122,0.0132,0.0138,0.0143,0.0226,0.0227,0.0227,0.0191,0.0189,0.0187,0,0,0,0,0,-0.0131,-0.014,-0.0131,-0.0127,-0.0092,-0.0067,-0.006,-0.0029,-0.0018,-0.0015,0.0025,0.0047,0.0132,0.0126,0.0136,0.0144,0.0226,0.0227,0.0227,0.0191,0.0189,0.0187,0,0,0,0,0,0,-0.016,-0.0135,-0.0124,-0.0126,-0.0101,-0.006,-0.0056,-0.0034,-0.0,0.0003,0.0052,0.0064,0.0098,0.0126,0.0117,0.0172,0.0182,0.0185,0.0151,0.015,0.0148,0.0129,0.0146,0,0,0,0,0,-0.0171,-0.0173,-0.014,-0.0142,-0.0133,-0.0096,-0.0082,-0.0062,-0.0027,-0.0012,0.0027,0.0069,0.0109,0.0132,0.0167,0.0198,0.0228,0.021,0.0208,0.0206,0.0199,0.0254,0.0257,0.023,0.023,0.023,0,0,-0.0184,-0.017,-0.0171,-0.0149,-0.0128,-0.0118,-0.0087,-0.0072,-0.0058,-0.0006,0.0023,0.0063,0.0115,0.015,0.0168,0.0175,0.023,0.0207,0.0205,0.0199,0.0255,0.0258,0.026,0.023,0.023,0.023,0,0,-0.0211,-0.0199,-0.0209,-0.0191,-0.0167,-0.014,-0.0139,-0.0099,-0.0076,-0.0044,-0.0001,0.0043,0.0097,0.0142,0.017,0.0181,0.0216,0.0189,0.017,0.0224,0.0226,0.0229,0.0268,0.0274,0.0191,0.0191,0.0191,0,-0.0228,-0.0235,-0.0207,-0.0209,-0.02,-0.0154,-0.0159,-0.0125,-0.0076,-0.0056,-0.0042,0.0051,0.0095,0.015,0.0154,0.0177,0.0205,0.0173,0.0221,0.0224,0.0228,0.0267,0.0274,0.019,0.019,0.019,0.019,0,-0.0258,-0.0263,-0.0268,-0.0256,-0.024,-0.0237,-0.0192,-0.0168,-0.0136,-0.0098,-0.0043,0.0023,0.0078,0.0103,0.0132,0.0179,0.019,0.0209,0.0223,0.0228,0.0269,0.0277,0.0187,0.0188,0.0188,0.0189,0,0,-0.03,-0.0293,-0.0295,-0.0303,-0.0267,-0.0261,-0.0232,-0.0194,-0.0178,-0.0117,-0.0088,-0.0006,0.0031,0.0066,0.0117,0.0166,0.0217,0.019,0.0194,0.0222,0.0323,0.0298,0.0306,0.0243,0.0245,0.0246,0.0341,0,-0.0334,-0.0361,-0.0338,-0.0356,-0.0365,-0.0315,-0.0296,-0.0253,-0.0204,-0.0162,-0.0076,-0.0031,0.0019,0.0043,0.0103,0.019,0.0238,0.0189,0.0319,0.0323,0.0296,0.0314,0.025,0.0347,0.0349,0.0351,0.0352,0,-0.0369,-0.0385,-0.0417,-0.0416,-0.0415,-0.0414,-0.038,-0.0355,-0.0274,-0.0235,-0.0162,-0.0096,-0.0003,0.0028,0.0184,0.0149,0.0225,0.0291,0.0297,0.0291,0.0314,0.0344,0.0368,0.0366,0.0365,0.0364,0.0363,0,-0.0421,-0.0437,-0.047,-0.047,-0.0458,-0.046,-0.0446,-0.0383,-0.0365,-0.0281,-0.0257,-0.0134,-0.0075,0.0045,0.0191,0.0187,0.0352,0.037,0.0421,0.042,0.043,0.0427,0.0467,0.0467,0.0467,0.0467,0.0466,0,-0.0463,-0.0489,-0.0505,-0.0523,-0.0562,-0.0526,-0.0539,-0.05,-0.0446,-0.0426,-0.0306,-0.026,-0.007,0.0052,0.0178,0.0326,0.035,0.0417,0.0445,0.0412,0.0405,0.0436,0.0431,0.047,0.0469,0.0469,0.0468,0,-0.0507,-0.0516,-0.0561,-0.0578,-0.0591,-0.0617,-0.0618,-0.0619,-0.0555,-0.0523,-0.05,-0.0346,-0.0182,0.0005,0.0209,0.0302,0.0448,0.0491,0.0433,0.0456,0.0483,0.0475,0.0557,0.0557,0.0557,0.0557,0.0557,0,-0.0529,-0.0559,-0.0617,-0.0657,-0.0671,-0.0705,-0.0727,-0.0684,-0.0675,-0.0575,-0.0562,-0.0402,-0.0282,-0.001,0.0184,0.0428,0.0455,0.0525,0.051,0.0474,0.0494,0.0486,0.0478,0.0557,0.0557,0.0557,0.0557,0,-0.0572,-0.0598,-0.0638,-0.0726,-0.0774,-0.0817,-0.0837,-0.0838,-0.0772,-0.0723,-0.0609,-0.0445,-0.0261,-0.003,0.0164,0.0335,0.048,0.0525,0.0526,0.0513,0.0475,0.0493,0.0485,0.0557,0.0557,0.0557,0.0557,0,-0.0602,-0.0646,-0.0709,-0.078,-0.0853,-0.0899,-0.0902,-0.0877,-0.0854,-0.073,-0.0699,-0.0478,-0.0339,-0.0078,0.0097,0.027,0.0309,0.035,0.0361,0.0363,0.0279,0.02,0.0222,0,0,0,0,0,-0.0623,-0.0677,-0.0756,-0.0831,-0.0905,-0.0942,-0.0961,-0.0944,-0.0884,-0.0819,-0.0752,-0.0577,-0.0289,-0.0158,0.0009,0.009,0.0332,0.0288,0.0382,0.0557,0.0557,0.0489,0,0,0,0,0,0,-0.0639,-0.0716,-0.076,-0.086,-0.0918,-0.0987,-0.1002,-0.0962,-0.0908,-0.0827,-0.0674,-0.0564,-0.0284,-0.0391,0.0002,0.0058,0.0134,0.0435,0.0438,0.0557,0.0557,0.0557,0.0487,0,0,0,0,0]}]]